Find Starlink 34854

NORAD ID: 65337 Int'l Des: 2025-189 Owner: SPXS Country: US Constellation: starlink operational
LEOCIRCULAR

当前视图

正在加载3D地球...

About Starlink 34854

Starlink 34854 (NORAD 65337) is a starlink constellation satellite (v2 mini) launched Aug 27, 2025 by SPXS of US. It operates in LEO, CIRCULAR orbit with a mass of 575.00 kg.

关于 Starlink 34854

正在加载描述...

即将过境

Passes for default location (London). Set your location on the main map for personalized predictions.

高度历史

Loading altitude history...

两行轨道根数

1 65337U 25189Q 26194.67322762 .00013124 00000-0 43374-3 0 9991
2 65337 53.1611 340.9835 0000942 82.7040 277.4069 15.31714821 50341
Epoch: Jul 13, 2026 • Age: 16 hours

当前状态

高度 474.6 km
远地点 / 近地点 N/A
速度 7.63 km/s
星下点 -14.09°S, 81.12°W
发射日期 Aug 27, 2025
运行时间 0.8 years
类型 internet

技术详情

分类 Payload
质量 575.00 kg
干质量 530.00 kg
总质量 575.00 kg
长度 0.30 m
直径 4.10 m
跨度 29.00 m
形状 Box + pan
制造商 SPXS
平台类型 Starlink V2MO
阶段状态 In Orbit
所有者/国家 SPXS/US

Most Searched